shoulder
new_line
new_line
first
second
third
Al di la della Luna; Beyond the Moon; Astrophotography; Astrofotografia; Danilo Pivato
 
 
         
         
2014
Orbital Elements

Epoch 2014 Aug. 11.0 TT = JDT 2456880.5
T 2014 Aug. 27.65581 TT                                                         MPCW
q   1.0545573            (2000.0)                         P                     Q
z  -0.0001537      Peri.  203.10559     -0.47153284     +0.78070312
                           Node  317.73797    +0.87390718    +0.4759561
e   1.0001621      Incl.  142.42835     +0.11808058    -0.40493005
 
         
         
2014.05.21
2014.05.24
2014.06.01
2014.06.21
 
         
         
         
         
         
         
         

 

       
 
Since: 01/01/2004
 
       
 
Since: 01/11/2010